Ruidoso, NM

7:58 AM MDT on October 19, 2017 (GMT -0600)
Sierra Blanca Regional

Weather History for KSRR - May, 2013

Change the Weather History Date:

Wednesday, May 15, 2013

  Actual Average Record
Temperature  
Mean Temperature 66 °F -  
Max Temperature 77 °F 72 °F 87 °F (2000)
Min Temperature 55 °F 47 °F 37 °F (2012)
Cooling Degree Days 1    
Growing Degree Days 16 (Base 50)    
Moisture  
Dew Point 31 °F    
Average Humidity 29    
Maximum Humidity 48    
Minimum Humidity 15    
Precipitation  
Precipitation 0.00 in - - ()
Sea Level Pressure  
Sea Level Pressure 30.12 in    
Wind  
Wind Speed 14 mph (NW)    
Max Wind Speed 28 mph    
Max Gust Speed 41 mph    
Visibility 10 miles    
Events      
Averages and records for this station are not official NWS values.
T = Trace of Precipitation, MM = Missing Value Source: NWS Daily Summary

Daily Weather History Graph

Daily Weather History Graph

Search for Another Location

Airport or City:

Trip Planner

Search our weather history database for the weather conditions in past years. The results will help you decide how hot, cold, wet, or windy it might be!

Date:

Astronomy

May. 15, 2013 Rise Set
Actual Time 6:01 AM MDT 7:55 PM MDT
Civil Twilight 5:34 AM MDT 8:23 PM MDT
Nautical Twilight 5:00 AM MDT 8:56 PM MDT
Astronomical Twilight 4:25 AM MDT 9:32 PM MDT
Moon 10:37 AM MDT (5/15) No Moon Set
Length of Visible Light 14h 49m
Length of Day
13h 54m
Waxing Crescent, 27% of the Moon is Illuminated
May 15
Waxing Crescent
May 17
First Quarter
May 24
Full
May 31
Last Quarter
Jun 8
New

Hourly Weather History & Observations

Time (MDT) Temp. Dew Point Humidity Pressure Visibility Wind Dir Wind Speed Gust Speed Precip Events Conditions
12:15 AM 60.8 °F 28.4 °F 29% 30.15 in 10.0 mi West 15.0 mph 20.7 mph N/A   Clear
12:35 AM 60.8 °F 30.2 °F 31% 30.16 in 10.0 mi NW 13.8 mph 19.6 mph N/A   Clear
12:55 AM 59.0 °F 32.0 °F 36% 30.16 in 10.0 mi NNW 6.9 mph 16.1 mph N/A   Clear
1:15 AM 57.2 °F 32.0 °F 38% 30.16 in 10.0 mi NNW 6.9 mph - N/A   Clear
1:35 AM 59.0 °F 32.0 °F 36% 30.16 in 10.0 mi NW 10.4 mph - N/A   Clear
1:55 AM 59.0 °F 32.0 °F 36% 30.15 in 10.0 mi NW 9.2 mph 17.3 mph N/A   Clear
2:15 AM 59.0 °F 32.0 °F 36% 30.14 in 10.0 mi NNW 11.5 mph 16.1 mph N/A   Clear
2:35 AM 59.0 °F 32.0 °F 36% 30.14 in 10.0 mi NW 15.0 mph 18.4 mph N/A   Partly Cloudy
2:55 AM 59.0 °F 32.0 °F 36% 30.13 in 10.0 mi NW 12.7 mph 23.0 mph N/A   Mostly Cloudy
3:15 AM 59.0 °F 32.0 °F 36% 30.13 in 10.0 mi NW 15.0 mph 20.7 mph N/A   Mostly Cloudy
3:35 AM 59.0 °F 32.0 °F 36% 30.13 in 10.0 mi NW 13.8 mph 20.7 mph N/A   Mostly Cloudy
3:55 AM 59.0 °F 32.0 °F 36% 30.12 in 10.0 mi NW 15.0 mph 19.6 mph N/A   Partly Cloudy
4:15 AM 59.0 °F 32.0 °F 36% 30.12 in 10.0 mi WNW 11.5 mph 20.7 mph N/A   Clear
4:35 AM 57.2 °F 32.0 °F 38% 30.13 in 10.0 mi WNW 12.7 mph 18.4 mph N/A   Partly Cloudy
4:55 AM 59.0 °F 32.0 °F 36% 30.13 in 10.0 mi WNW 12.7 mph - N/A   Clear
5:15 AM 57.2 °F 32.0 °F 38% 30.13 in 10.0 mi NW 10.4 mph - N/A   Clear
5:35 AM 57.2 °F 32.0 °F 38% 30.13 in 10.0 mi WNW 9.2 mph 18.4 mph N/A   Clear
5:55 AM 57.2 °F 32.0 °F 38% 30.13 in 10.0 mi NW 10.4 mph - N/A   Clear
6:15 AM 57.2 °F 32.0 °F 38% 30.13 in 10.0 mi NW 9.2 mph 16.1 mph N/A   Clear
6:35 AM 55.4 °F 32.0 °F 41% 30.14 in 10.0 mi WNW 8.1 mph - N/A   Clear
6:55 AM 55.4 °F 32.0 °F 41% 30.15 in 10.0 mi WNW 8.1 mph - N/A   Clear
7:15 AM 57.2 °F 32.0 °F 38% 30.15 in 10.0 mi WNW 13.8 mph - N/A   Clear
7:35 AM 60.8 °F 32.0 °F 34% 30.14 in 10.0 mi WNW 16.1 mph 23.0 mph N/A   Clear
7:55 AM 62.6 °F 32.0 °F 32% 30.15 in 10.0 mi WNW 16.1 mph 24.2 mph N/A   Clear
8:15 AM 62.6 °F 32.0 °F 32% 30.15 in 10.0 mi WNW 15.0 mph 21.9 mph N/A   Clear
8:35 AM 62.6 °F 33.8 °F 34% 30.15 in 10.0 mi WNW 24.2 mph 32.2 mph N/A   Clear
8:55 AM 64.4 °F 33.8 °F 32% 30.16 in 10.0 mi WNW 18.4 mph 31.1 mph N/A   Clear
9:15 AM 60.8 °F 35.6 °F 39% 30.16 in 10.0 mi WNW 25.3 mph 35.7 mph N/A   Clear
9:35 AM 62.6 °F 37.4 °F 39% 30.17 in 10.0 mi NW 21.9 mph 41.4 mph N/A   Clear
9:55 AM 60.8 °F 39.2 °F 45% 30.17 in 10.0 mi NW 21.9 mph 32.2 mph N/A   Partly Cloudy
10:15 AM 59.0 °F 39.2 °F 48% 30.16 in 10.0 mi WNW 24.2 mph 36.8 mph N/A   Partly Cloudy
10:35 AM 64.4 °F 37.4 °F 37% 30.15 in 10.0 mi WNW 27.6 mph 40.3 mph N/A   Scattered Clouds
10:55 AM 64.4 °F 37.4 °F 37% 30.15 in 10.0 mi WNW 20.7 mph 34.5 mph N/A   Scattered Clouds
11:15 AM 64.4 °F 35.6 °F 34% 30.14 in 10.0 mi WNW 20.7 mph 28.8 mph N/A   Partly Cloudy
11:35 AM 66.2 °F 32.0 °F 28% 30.14 in 10.0 mi WNW 19.6 mph 31.1 mph N/A   Partly Cloudy
11:55 AM 68.0 °F 32.0 °F 26% 30.14 in 10.0 mi WNW 24.2 mph 31.1 mph N/A   Partly Cloudy
12:15 PM 68.0 °F 32.0 °F 26% 30.14 in 10.0 mi WNW 20.7 mph 29.9 mph N/A   Partly Cloudy
12:35 PM 71.6 °F 32.0 °F 23% 30.13 in 10.0 mi WNW 17.3 mph 28.8 mph N/A   Partly Cloudy
12:55 PM 71.6 °F 32.0 °F 23% 30.13 in 10.0 mi WNW 20.7 mph 31.1 mph N/A   Clear
1:15 PM 71.6 °F 32.0 °F 23% 30.12 in 10.0 mi WNW 17.3 mph 31.1 mph N/A   Clear
1:35 PM 73.4 °F 32.0 °F 22% 30.11 in 10.0 mi NW 17.3 mph 33.4 mph N/A   Clear
1:55 PM 73.4 °F 32.0 °F 22% 30.10 in 10.0 mi NW 19.6 mph 32.2 mph N/A   Partly Cloudy
2:15 PM 75.2 °F 32.0 °F 21% 30.10 in 10.0 mi NW 19.6 mph 33.4 mph N/A   Partly Cloudy
2:35 PM 75.2 °F 30.2 °F 19% 30.10 in 10.0 mi WNW 25.3 mph 33.4 mph N/A   Clear
2:55 PM 75.2 °F 28.4 °F 18% 30.09 in 10.0 mi NW 23.0 mph 32.2 mph N/A   Clear
3:15 PM 73.4 °F 28.4 °F 19% 30.08 in 10.0 mi WNW 21.9 mph 33.4 mph N/A   Partly Cloudy
3:35 PM 73.4 °F 28.4 °F 19% 30.07 in 10.0 mi NNW 20.7 mph 31.1 mph N/A   Partly Cloudy
3:55 PM 75.2 °F 28.4 °F 18% 30.06 in 10.0 mi WNW 16.1 mph 26.5 mph N/A   Clear
4:15 PM 73.4 °F 26.6 °F 18% 30.06 in 10.0 mi NW 15.0 mph 36.8 mph N/A   Clear
4:35 PM 75.2 °F 26.6 °F 17% 30.05 in 10.0 mi NNW 15.0 mph 25.3 mph N/A   Clear
4:55 PM 77.0 °F 26.6 °F 16% 30.05 in 10.0 mi NW 8.1 mph 27.6 mph N/A   Clear
5:15 PM 77.0 °F 26.6 °F 16% 30.05 in 10.0 mi NNW 16.1 mph 21.9 mph N/A   Clear
5:35 PM 75.2 °F 24.8 °F 15% 30.05 in 10.0 mi WNW 21.9 mph 29.9 mph N/A   Clear
5:55 PM 73.4 °F 26.6 °F 18% 30.05 in 10.0 mi NNW 9.2 mph - N/A   Partly Cloudy
6:15 PM 75.2 °F 26.6 °F 17% 30.05 in 10.0 mi WSW 17.3 mph 21.9 mph N/A   Partly Cloudy
6:35 PM 73.4 °F 26.6 °F 18% 30.05 in 10.0 mi NNW 17.3 mph 39.1 mph N/A   Scattered Clouds
6:55 PM 71.6 °F 28.4 °F 20% 30.07 in 10.0 mi NNW 13.8 mph 39.1 mph N/A   Partly Cloudy
7:15 PM 71.6 °F 30.2 °F 22% 30.07 in 10.0 mi West 5.8 mph - N/A   Scattered Clouds
7:35 PM 69.8 °F 28.4 °F 21% 30.08 in 10.0 mi NNW 9.2 mph - N/A   Scattered Clouds
7:55 PM 68.0 °F 32.0 °F 26% 30.08 in 10.0 mi Calm Calm - N/A   Scattered Clouds
8:15 PM 68.0 °F 28.4 °F 23% 30.09 in 10.0 mi NW 10.4 mph 17.3 mph N/A   Partly Cloudy
8:35 PM 68.0 °F 28.4 °F 23% 30.10 in 10.0 mi North 8.1 mph 36.8 mph N/A   Partly Cloudy
8:55 PM 68.0 °F 28.4 °F 23% 30.10 in 10.0 mi WNW 6.9 mph - N/A   Partly Cloudy
9:15 PM 68.0 °F 28.4 °F 23% 30.11 in 10.0 mi North 3.5 mph - N/A   Clear
9:35 PM 66.2 °F 28.4 °F 24% 30.12 in 10.0 mi NW 3.5 mph - N/A   Clear
9:55 PM 64.4 °F 30.2 °F 28% 30.12 in 10.0 mi Calm Calm - N/A   Clear
10:15 PM 60.8 °F 28.4 °F 29% 30.13 in 10.0 mi Calm Calm - N/A   Scattered Clouds
10:55 PM 66.2 °F 30.2 °F 26% 30.13 in 10.0 mi West 3.5 mph - N/A   Clear
11:15 PM 64.4 °F 28.4 °F 26% 30.13 in 10.0 mi Calm Calm - N/A   Clear
11:35 PM 64.4 °F 28.4 °F 26% 30.12 in 10.0 mi West 3.5 mph - N/A   Clear
11:55 PM 64.4 °F 28.4 °F 26% 30.12 in 10.0 mi West 4.6 mph - N/A   Partly Cloudy